This is the latest recevied weather packets stored in our database for station/object NK7E. If no packets are shown the sender has not sent any weather packets the latest 10 day(s).
| Time | Temp. | Humidity | Pressure | Rain* | Wind** | Luminosity | Snow |
|---|---|---|---|---|---|---|---|
| 1778204716 | 28.33° C | 14% | 1010.9 hPa | 0 mm | - | 63 W/m² | - |
| 1778204116 | 28.89° C | 14% | 1010.8 hPa | 0 mm | - | 99 W/m² | - |
| 1778203516 | 28.89° C | 14% | 1010.7 hPa | 0 mm | - | 134 W/m² | - |
| 1778202916 | 28.89° C | 14% | 1010.6 hPa | 0 mm | - | 147 W/m² | - |
| 1778202316 | 29.44° C | 14% | 1010.5 hPa | 0 mm | - | 167 W/m² | - |
| 1778201716 | 29.44° C | 14% | 1010.5 hPa | 0 mm | - | 188 W/m² | - |
| 1778201116 | 29.44° C | 14% | 1010.4 hPa | 0 mm | - | 193 W/m² | - |
| 1778200516 | 29.44° C | 14% | 1010.3 hPa | 0 mm | - | 195 W/m² | - |
| 1778199917 | 30° C | 14% | 1010.2 hPa | 0 mm | - | 242 W/m² | - |
| 1778199316 | 30° C | 14% | 1010.3 hPa | 0 mm | - | 303 W/m² | - |
| 1778198716 | 30° C | 15% | 1010.3 hPa | 0 mm | - | 333 W/m² | - |
| 1778198116 | 30.56° C | 15% | 1010.3 hPa | 0 mm | - | 306 W/m² | - |
| 1778197516 | 30.56° C | 14% | 1010.1 hPa | 0 mm | - | 321 W/m² | - |
| 1778196916 | 30.56° C | 15% | 1010.2 hPa | 0 mm | - | 217 W/m² | - |
| 1778196316 | 31.11° C | 14% | 1010.2 hPa | 0 mm | - | 195 W/m² | - |
| 1778195716 | 31.11° C | 14% | 1010.2 hPa | 0 mm | - | 653 W/m² | - |
| 1778195116 | 31.11° C | 14% | 1010.3 hPa | 0 mm | - | 723 W/m² | - |
| 1778194516 | 31.11° C | 14% | 1010.3 hPa | 0 mm | - | 723 W/m² | - |
| 1778193916 | 31.11° C | 14% | 1010.3 hPa | 0 mm | - | 736 W/m² | - |
| 1778193316 | 31.11° C | 14% | 1010.4 hPa | 0 mm | - | 771 W/m² | - |
| 1778192716 | 30.56° C | 15% | 1010.5 hPa | 0 mm | - | 790 W/m² | - |
| 1778192116 | 31.11° C | 14% | 1010.6 hPa | 0 mm | - | 476 W/m² | - |
| 1778191516 | 30.56° C | 15% | 1010.7 hPa | 0 mm | - | 889 W/m² | - |
| 1778190916 | 30.56° C | 14% | 1010.9 hPa | 0 mm | - | 874 W/m² | - |
| 1778190316 | 30.56° C | 15% | 1011.1 hPa | 0 mm | - | 916 W/m² | - |
* Rain latest hour (hover to see other rain measurements)
** Current wind speed in m/s (hover to see current wind gust speed)